When you browse on this site, cookies collect data to enhance your experience and personalize the content and advertising you see.
Visit our Privacy Policy to learn more. By continuing to use the site, you agree to this use of cookies and data.
  • In Netherlands
  • List of Countries
  • For 7 days
  • Water Temperature
  • Satellite Maps
  • Weather Map
  • Weather Widgets
  • user-avatar
    Login

    Hourly Weather Boa Vista

    Today, 19 July, Friday

    Time Temperature Precipitation Wind Pressure Humidity
    00:00 +26°C° 0.2 mm 1 mps 755 mmHg 91%
    01:00 +23°C° 0.2 mm 0 mps 754 mmHg 91%
    02:00 +23°C° 0.2 mm 0 mps 754 mmHg 92%
    03:00 +23°C° 0.7 mm 0 mps 754 mmHg 93%
    04:00 +25°C° 0.7 mm 1 mps 754 mmHg 94%
    05:00 +25°C° 0.7 mm 1 mps 754 mmHg 95%
    06:00 +25°C° 1.6 mm 1 mps 755 mmHg 95%
    07:00 +25°C° 1.6 mm 2 mps 755 mmHg 94%
    08:00 +25°C° 1.6 mm 2 mps 756 mmHg 94%
    09:00 +26°C° 1 mm 2 mps 756 mmHg 92%
    10:00 +26°C° 1 mm 1 mps 756 mmHg 89%
    11:00 +27°C° 1 mm 1 mps 756 mmHg 87%
    12:00 +29°C° 0.5 mm 1 mps 755 mmHg 80%
    13:00 +28°C° 0.5 mm 0 mps 754 mmHg 74%
    14:00 +30°C° 0.5 mm 0 mps 753 mmHg 67%
    15:00 +31°C° 0.5 mm 1 mps 752 mmHg 69%
    16:00 +31°C° 0.5 mm 1 mps 752 mmHg 70%
    17:00 +31°C° 0.5 mm 1 mps 752 mmHg 71%
    18:00 +30°C° 0.5 mm 1 mps 752 mmHg 76%
    19:00 +28°C° 0.5 mm 1 mps 753 mmHg 80%
    20:00 +27°C° 0.5 mm 1 mps 754 mmHg 85%
    21:00 +27°C° 0.6 mm 1 mps 754 mmHg 86%
    22:00 +27°C° 0.6 mm 1 mps 754 mmHg 87%
    23:00 +26°C° 0.6 mm 1 mps 754 mmHg 88%

    Tomorrow, 20 July, Saturday

    Time Temperature Precipitation Wind Pressure Humidity
    00:00 +26°C° 0.5 mm 1 mps 754 mmHg 89%
    01:00 +26°C° 0.5 mm 1 mps 754 mmHg 90%
    02:00 +25°C° 0.5 mm 1 mps 753 mmHg 91%
    03:00 +25°C° 0.2 mm 1 mps 753 mmHg 91%
    04:00 +25°C° 0.2 mm 1 mps 753 mmHg 92%
    05:00 +25°C° 0.2 mm 1 mps 753 mmHg 93%
    06:00 +26°C° 0.1 mm 1 mps 753 mmHg 90%
    07:00 +26°C° 0.1 mm 2 mps 754 mmHg 88%
    08:00 +27°C° 0.1 mm 2 mps 755 mmHg 85%
    09:00 +29°C° 0.7 mm 2 mps 755 mmHg 80%
    10:00 +30°C° 0.7 mm 3 mps 754 mmHg 75%
    11:00 +31°C° 0.7 mm 3 mps 754 mmHg 70%
    12:00 +33°C° 0.2 mm 3 mps 753 mmHg 66%
    13:00 +34°C° 0.2 mm 3 mps 753 mmHg 61%
    14:00 +34°C° 0.2 mm 3 mps 752 mmHg 57%
    15:00 +34°C° 0.1 mm 3 mps 751 mmHg 60%
    16:00 +34°C° 0.1 mm 2 mps 751 mmHg 64%
    17:00 +32°C° 0.1 mm 2 mps 751 mmHg 67%
    18:00 +30°C° 0.7 mm 2 mps 751 mmHg 73%
    19:00 +29°C° 0.7 mm 2 mps 752 mmHg 79%
    20:00 +27°C° 0.7 mm 2 mps 753 mmHg 84%
    21:00 +27°C° 0.7 mm 2 mps 753 mmHg 86%
    22:00 +26°C° 0.7 mm 1 mps 753 mmHg 87%
    23:00 +26°C° 0.7 mm 1 mps 753 mmHg 89%

    Day after tomorrow, 21 July, Sunday

    Time Temperature Precipitation Wind Pressure Humidity
    00:00 +26°C° 0 mm 1 mps 753 mmHg 89%
    01:00 +26°C° 0 mm 1 mps 753 mmHg 90%
    02:00 +25°C° 0 mm 1 mps 752 mmHg 91%
    03:00 +25°C° 0.4 mm 1 mps 752 mmHg 92%
    04:00 +25°C° 0.4 mm 1 mps 753 mmHg 93%
    05:00 +25°C° 0.4 mm 2 mps 753 mmHg 93%
    06:00 +25°C° 0.1 mm 2 mps 753 mmHg 92%
    07:00 +26°C° 0.1 mm 1 mps 754 mmHg 90%
    08:00 +26°C° 0.1 mm 1 mps 754 mmHg 88%
    09:00 +28°C° 0.4 mm 2 mps 754 mmHg 81%
    10:00 +29°C° 0.4 mm 2 mps 754 mmHg 75%
    11:00 +31°C° 0.4 mm 3 mps 754 mmHg 68%
    12:00 +33°C° 0.1 mm 3 mps 753 mmHg 65%
    13:00 +33°C° 0.1 mm 3 mps 752 mmHg 62%
    14:00 +34°C° 0.1 mm 3 mps 751 mmHg 59%
    15:00 +34°C° 0.1 mm 3 mps 751 mmHg 61%
    16:00 +34°C° 0.1 mm 2 mps 751 mmHg 62%
    17:00 +32°C° 0.1 mm 2 mps 751 mmHg 64%
    18:00 +31°C° 0 mm 1 mps 751 mmHg 67%
    19:00 +30°C° 0 mm 1 mps 752 mmHg 70%
    20:00 +28°C° 0 mm 1 mps 753 mmHg 73%
    21:00 +28°C° 0.3 mm 1 mps 753 mmHg 76%
    22:00 +27°C° 0.3 mm 1 mps 753 mmHg 80%
    23:00 +27°C° 0.3 mm 2 mps 754 mmHg 83%

    22 July, Monday

    Time Temperature Precipitation Wind Pressure Humidity
    00:00 +26°C° 1 mm 2 mps 753 mmHg 86%
    01:00 +26°C° 1 mm 1 mps 753 mmHg 89%
    02:00 +25°C° 1 mm 1 mps 753 mmHg 92%
    03:00 +25°C° 0.5 mm 1 mps 753 mmHg 93%
    04:00 +25°C° 0.5 mm 1 mps 753 mmHg 93%
    05:00 +25°C° 0.5 mm 1 mps 753 mmHg 94%
    06:00 +25°C° 0.2 mm 2 mps 754 mmHg 92%
    07:00 +26°C° 0.2 mm 3 mps 754 mmHg 89%
    08:00 +27°C° 0.2 mm 3 mps 755 mmHg 87%
    09:00 +28°C° 0.1 mm 3 mps 755 mmHg 79%
    10:00 +30°C° 0.1 mm 4 mps 755 mmHg 71%
    11:00 +33°C° 0.1 mm 4 mps 755 mmHg 63%
    12:00 +33°C° 0 mm 4 mps 754 mmHg 60%
    13:00 +34°C° 0 mm 4 mps 753 mmHg 58%
    14:00 +34°C° 0 mm 4 mps 752 mmHg 55%
    15:00 +34°C° 0.1 mm 3 mps 752 mmHg 58%
    16:00 +34°C° 0.1 mm 3 mps 751 mmHg 61%
    17:00 +32°C° 0.1 mm 2 mps 751 mmHg 64%
    18:00 +31°C° 0.1 mm 2 mps 751 mmHg 67%
    19:00 +29°C° 0.1 mm 2 mps 752 mmHg 69%
    20:00 +28°C° 0.1 mm 1 mps 753 mmHg 72%
    21:00 +28°C° 0 mm 2 mps 753 mmHg 73%
    22:00 +28°C° 0 mm 2 mps 753 mmHg 74%
    23:00 +28°C° 0 mm 2 mps 754 mmHg 75%

    23 July, Tuesday

    Time Temperature Precipitation Wind Pressure Humidity
    00:00 +27°C° 0.2 mm 2 mps 753 mmHg 78%
    01:00 +27°C° 0.2 mm 2 mps 753 mmHg 82%
    02:00 +26°C° 0.2 mm 2 mps 752 mmHg 85%
    03:00 +26°C° 0.1 mm 2 mps 752 mmHg 86%
    04:00 +26°C° 0.1 mm 2 mps 753 mmHg 86%
    05:00 +26°C° 0.1 mm 2 mps 753 mmHg 87%
    06:00 +26°C° 0 mm 2 mps 753 mmHg 84%
    07:00 +27°C° 0 mm 3 mps 754 mmHg 82%
    08:00 +28°C° 0 mm 3 mps 754 mmHg 80%
    09:00 +29°C° 0 mm 3 mps 754 mmHg 73%
    10:00 +31°C° 0 mm 3 mps 754 mmHg 67%
    11:00 +33°C° 0 mm 4 mps 754 mmHg 60%
    12:00 +34°C° 0 mm 3 mps 753 mmHg 59%
    13:00 +34°C° 0 mm 3 mps 753 mmHg 57%
    14:00 +35°C° 0 mm 3 mps 752 mmHg 55%
    15:00 +34°C° 0 mm 3 mps 751 mmHg 58%
    16:00 +34°C° 0 mm 2 mps 751 mmHg 60%
    17:00 +34°C° 0 mm 2 mps 751 mmHg 63%
    18:00 +31°C° 0.1 mm 2 mps 751 mmHg 67%
    19:00 +30°C° 0.1 mm 2 mps 752 mmHg 70%
    20:00 +28°C° 0.1 mm 1 mps 753 mmHg 74%
    21:00 +28°C° 0.4 mm 1 mps 753 mmHg 77%
    22:00 +27°C° 0.4 mm 1 mps 753 mmHg 81%
    23:00 +26°C° 0.4 mm 1 mps 754 mmHg 84%

    24 July, Wednesday

    Time Temperature Precipitation Wind Pressure Humidity
    00:00 +26°C° 0 mm 1 mps 753 mmHg 85%
    01:00 +26°C° 0 mm 1 mps 753 mmHg 87%
    02:00 +25°C° 0 mm 1 mps 753 mmHg 88%
    03:00 +23°C° 0.2 mm 0 mps 753 mmHg 88%
    04:00 +23°C° 0.2 mm 0 mps 753 mmHg 89%
    05:00 +23°C° 0.2 mm 0 mps 753 mmHg 90%
    06:00 +26°C° 0.2 mm 1 mps 753 mmHg 87%
    07:00 +27°C° 0.2 mm 1 mps 754 mmHg 84%
    08:00 +28°C° 0.2 mm 2 mps 754 mmHg 81%
    09:00 +29°C° 0.4 mm 2 mps 754 mmHg 74%
    10:00 +31°C° 0.4 mm 3 mps 754 mmHg 67%
    11:00 +33°C° 0.4 mm 3 mps 754 mmHg 60%
    12:00 +33°C° 0.6 mm 3 mps 753 mmHg 63%
    13:00 +33°C° 0.6 mm 3 mps 753 mmHg 65%
    14:00 +33°C° 0.6 mm 3 mps 752 mmHg 67%
    15:00 +31°C° 0.8 mm 3 mps 752 mmHg 69%
    16:00 +31°C° 0.8 mm 2 mps 751 mmHg 72%
    17:00 +30°C° 0.8 mm 2 mps 751 mmHg 75%
    18:00 +29°C° 0.3 mm 2 mps 752 mmHg 79%
    19:00 +28°C° 0.3 mm 1 mps 752 mmHg 83%
    20:00 +26°C° 0.3 mm 1 mps 753 mmHg 87%
    21:00 +26°C° 0.9 mm 1 mps 753 mmHg 88%
    22:00 +26°C° 0.9 mm 1 mps 753 mmHg 89%
    23:00 +25°C° 0.9 mm 1 mps 753 mmHg 90%
    Show more